User: anonymous   Login
Location: Unspecified
(0.0000°N, 0.0000°E)
Time: 05:31:06
(UTC+01:00)
Language:

ARIANE 5 R/B - Orbit

View from above orbital plane
View from above orbital plane
View from above satellite
View from above satellite

Ground track
Ground track

The orbit data is extracted from the following two-line orbital elements,

1 29646U 06054D   17054.72105774  .00000574  00000-0  17734-3 0  9993
2 29646   3.0625  12.5489 7093363 217.9217  60.9587  2.50913607 88873
Epoch (UTC): 23 February 2017 17:18:19
Eccentricity: 0.7093363
inclination: 3.0625°
perigee height: 271 km
apogee height: 32725 km
right ascension of ascending node: 12.5489°
argument of perigee: 217.9217°
revolutions per day: 2.50913607
mean anomaly at epoch: 60.9587°
orbit number at epoch: 8887

The dashed part of the orbit path shows where the satellite is in the earth's shadow,  

DLR